| time (UTC) | temp C | wind direction | speed KPH | gust KPH | rain 1hr cm | rain 24hr cm | rain mn cm | humidity % | barometer mb |
| 20260504050325 | 6 | 275 | 0.0 | 0.0 | 0.00 | 0.00 | 0.00 | 73 | 1010.8 |
| 20260504045759 | 6 | 275 | 0.0 | 0.0 | 0.00 | 0.00 | 0.00 | 72 | 1010.8 |
| 20260504045233 | 6 | 275 | 0.0 | 0.0 | 0.00 | 0.00 | 0.00 | 71 | 1010.8 |
| 20260504044707 | 6 | 275 | 0.0 | 0.0 | 0.00 | 0.00 | 0.00 | 71 | 1010.8 |
| 20260504044138 | 6 | 275 | 0.0 | 0.0 | 0.00 | 0.00 | 0.00 | 71 | 1010.8 |
| 20260504043622 | 6 | 275 | 0.0 | 0.0 | 0.00 | 0.00 | 0.00 | 71 | 1010.8 |
| 20260504043122 | 7 | 275 | 0.0 | 0.0 | 0.00 | 0.00 | 0.00 | 70 | 1010.8 |
| 20260504042558 | 7 | 275 | 0.0 | 0.0 | 0.00 | 0.00 | 0.00 | 70 | 1010.8 |
| 20260504042301 | 7 | 275 | 0.0 | 0.0 | 0.00 | 0.00 | 0.00 | 70 | 1010.6 |
| 20260504041755 | 7 | 275 | 0.0 | 0.0 | 0.00 | 0.00 | 0.00 | 70 | 1010.6 |
| 20260504041303 | 7 | 275 | 0.0 | 0.0 | 0.00 | 0.00 | 0.00 | 70 | 1010.6 |
| 20260504040530 | 7 | 275 | 0.0 | 0.0 | 0.00 | 0.00 | 0.00 | 70 | 1010.6 |
| 20260504040251 | 7 | 275 | 0.0 | 0.0 | 0.00 | 0.00 | 0.00 | 69 | 1010.6 |
| 20260504035528 | 7 | 275 | 0.0 | 0.0 | 0.00 | 0.00 | 0.00 | 69 | 1010.6 |
| 20260504035027 | 7 | 275 | 0.0 | 0.0 | 0.00 | 0.00 | 0.00 | 69 | 1010.8 |
| 20260504034526 | 8 | 275 | 0.0 | 0.0 | 0.00 | 0.00 | 0.00 | 69 | 1010.6 |
| 20260504034023 | 8 | 275 | 0.0 | 0.0 | 0.00 | 0.00 | 0.00 | 69 | 1010.8 |
| 20260504033518 | 8 | 275 | 0.0 | 0.0 | 0.00 | 0.00 | 0.00 | 69 | 1010.8 |
| 20260504033016 | 8 | 275 | 0.0 | 0.0 | 0.00 | 0.00 | 0.00 | 69 | 1010.8 |
| 20260504032513 | 8 | 275 | 0.0 | 0.0 | 0.00 | 0.00 | 0.00 | 69 | 1010.8 |
| 20260504032011 | 8 | 275 | 0.0 | 0.0 | 0.00 | 0.00 | 0.00 | 69 | 1010.8 |
| 20260504031511 | 8 | 275 | 0.0 | 0.0 | 0.00 | 0.00 | 0.00 | 69 | 1010.8 |
| 20260504031009 | 8 | 275 | 0.0 | 0.0 | 0.00 | 0.00 | 0.00 | 69 | 1010.6 |
| 20260504030510 | 8 | 275 | 0.0 | 0.0 | 0.00 | 0.00 | 0.00 | 68 | 1010.6 |
| 20260504025948 | 8 | 275 | 0.0 | 0.0 | 0.00 | 0.00 | 0.00 | 68 | 1010.8 |
| 20260504025444 | 8 | 275 | 0.0 | 0.0 | 0.00 | 0.00 | 0.00 | 67 | 1010.6 |
| 20260504024942 | 8 | 275 | 0.0 | 0.0 | 0.00 | 0.00 | 0.00 | 67 | 1010.8 |
| 20260504024440 | 9 | 275 | 0.0 | 0.0 | 0.00 | 0.00 | 0.00 | 66 | 1010.9 |
| 20260504023938 | 9 | 275 | 0.0 | 0.0 | 0.00 | 0.00 | 0.00 | 66 | 1010.9 |
| 20260504023438 | 9 | 275 | 0.0 | 0.0 | 0.00 | 0.00 | 0.00 | 65 | 1010.9 |
| 20260504022937 | 9 | 275 | 0.0 | 0.0 | 0.00 | 0.00 | 0.00 | 64 | 1011.0 |
| 20260504022437 | 9 | 275 | 0.0 | 0.0 | 0.00 | 0.00 | 0.00 | 63 | 1010.9 |
| 20260504021935 | 9 | 275 | 0.0 | 0.0 | 0.00 | 0.00 | 0.00 | 63 | 1010.9 |
| 20260504021434 | 9 | 275 | 0.0 | 0.0 | 0.00 | 0.00 | 0.00 | 62 | 1010.9 |
| 20260504020927 | 9 | 275 | 0.0 | 0.0 | 0.00 | 0.00 | 0.00 | 60 | 1010.9 |
| 20260504020425 | 9 | 275 | 0.0 | 0.0 | 0.00 | 0.00 | 0.00 | 60 | 1011.0 |
| 20260504015924 | 10 | 275 | 0.0 | 0.0 | 0.00 | 0.00 | 0.00 | 60 | 1010.9 |
| 20260504015417 | 10 | 275 | 0.0 | 0.0 | 0.00 | 0.00 | 0.00 | 60 | 1010.9 |
| 20260504014916 | 10 | 275 | 0.0 | 0.0 | 0.00 | 0.00 | 0.00 | 60 | 1010.8 |
| 20260504014411 | 10 | 275 | 0.0 | 0.0 | 0.00 | 0.00 | 0.00 | 60 | 1010.9 |
| 20260504013914 | 10 | 275 | 0.0 | 0.0 | 0.00 | 0.00 | 0.00 | 58 | 1010.8 |
| 20260504013550 | 10 | 275 | 0.0 | 0.0 | 0.00 | 0.00 | 0.00 | 58 | 1010.6 |
| 20260504013438 | 10 | 275 | 0.0 | 0.0 | 0.00 | 0.00 | 0.00 | 57 | 1010.8 |
| 20260504012828 | 10 | 275 | 0.0 | 0.0 | 0.00 | 0.00 | 0.00 | 58 | 1010.8 |
| 20260504011841 | 10 | 275 | 0.0 | 0.0 | 0.00 | 0.00 | 0.00 | 56 | 1010.6 |
| 20260504011341 | 10 | 275 | 0.0 | 0.0 | 0.00 | 0.00 | 0.00 | 55 | 1010.6 |
| 20260504010840 | 10 | 275 | 0.0 | 0.0 | 0.00 | 0.00 | 0.00 | 54 | 1010.5 |
| 20260504010338 | 11 | 275 | 0.0 | 0.0 | 0.00 | 0.00 | 0.00 | 54 | 1010.3 |
| 20260504010056 | 11 | 275 | 0.0 | 0.0 | 0.00 | 0.00 | 0.00 | 54 | 1010.3 |
| 20260504005334 | 11 | 275 | 0.0 | 0.0 | 0.00 | 0.00 | 0.00 | 54 | 1010.3 |
| 20260504004833 | 11 | 275 | 0.0 | 0.0 | 0.00 | 0.00 | 0.00 | 52 | 1010.3 |
| 20260504004327 | 11 | 275 | 0.0 | 0.0 | 0.00 | 0.00 | 0.00 | 51 | 1010.2 |
| 20260504004053 | 11 | 275 | 0.0 | 0.0 | 0.00 | 0.00 | 0.00 | 49 | 1010.2 |
| 20260504003550 | 11 | 275 | 0.0 | 0.0 | 0.00 | 0.00 | 0.00 | 48 | 1010.1 |
| 20260504002827 | 11 | 275 | 0.0 | 0.0 | 0.00 | 0.00 | 0.00 | 49 | 1010.1 |
| 20260504002522 | 12 | 275 | 0.0 | 0.0 | 0.00 | 0.00 | 0.00 | 50 | 1010.0 |
| 20260504001733 | 12 | 275 | 0.0 | 0.0 | 0.00 | 0.00 | 0.00 | 45 | 1009.9 |
| 20260504001205 | 12 | 275 | 0.0 | 0.0 | 0.00 | 0.00 | 0.00 | 46 | 1009.9 |
| 20260504000638 | 12 | 275 | 0.0 | 0.0 | 0.00 | 0.00 | 0.00 | 45 | 1009.8 |
| 20260504000111 | 12 | 275 | 0.0 | 0.0 | 0.00 | 0.00 | 0.00 | 45 | 1009.8 |
| 20260503235548 | 12 | 275 | 0.0 | 0.0 | 0.00 | 0.00 | 0.00 | 43 | 1009.8 |
| 20260503235022 | 12 | 275 | 0.0 | 0.0 | 0.00 | 0.00 | 0.00 | 43 | 1009.8 |
| 20260503234454 | 13 | 272 | 0.0 | 0.0 | 0.00 | 0.00 | 0.00 | 42 | 1009.6 |
| 20260503234204 | 13 | 272 | 0.0 | 6.4 | 0.00 | 0.00 | 0.00 | 42 | 1009.6 |
| 20260503233439 | 13 | 273 | 0.0 | 6.4 | 0.00 | 0.00 | 0.00 | 41 | 1009.5 |
| 20260503233138 | 13 | 289 | 0.0 | 0.0 | 0.00 | 0.00 | 0.00 | 42 | 1009.6 |
| 20260503232350 | 13 | 289 | 0.0 | 0.0 | 0.00 | 0.00 | 0.00 | 42 | 1009.6 |
| 20260503231822 | 13 | 278 | 0.0 | 0.0 | 0.00 | 0.00 | 0.00 | 43 | 1009.6 |
| 20260503231257 | 13 | 279 | 0.0 | 0.0 | 0.00 | 0.00 | 0.00 | 43 | 1009.5 |
| 20260503231001 | 13 | 281 | 0.0 | 0.0 | 0.00 | 0.00 | 0.00 | 42 | 1009.6 |
| 20260503230204 | 13 | 271 | 0.0 | 0.0 | 0.00 | 0.00 | 0.00 | 42 | 1009.6 |
| 20260503225700 | 13 | 271 | 0.0 | 0.0 | 0.00 | 0.00 | 0.00 | 42 | 1009.6 |
| 20260503225201 | 13 | 271 | 0.0 | 0.0 | 0.00 | 0.00 | 0.00 | 41 | 1009.6 |
| 20260503224658 | 13 | 272 | 0.0 | 0.0 | 0.00 | 0.00 | 0.00 | 41 | 1009.6 |
| 20260503224425 | 13 | 272 | 0.0 | 1.6 | 0.00 | 0.00 | 0.00 | 42 | 1009.7 |
| 20260503223653 | 13 | 273 | 0.0 | 3.2 | 0.00 | 0.00 | 0.00 | 41 | 1009.7 |
| 20260503223151 | 13 | 0 | 0.0 | 3.2 | 0.00 | 0.00 | 0.00 | 42 | 1009.7 |
| 20260503222911 | 13 | 274 | 0.0 | 0.0 | 0.00 | 0.00 | 0.00 | 41 | 1009.7 |
| 20260503222152 | 13 | 289 | 0.0 | 6.4 | 0.00 | 0.00 | 0.00 | 42 | 1009.7 |
| 20260503221653 | 13 | 269 | 0.0 | 6.4 | 0.00 | 0.00 | 0.00 | 42 | 1009.8 |
| 20260503221149 | 13 | 0 | 0.0 | 0.0 | 0.00 | 0.00 | 0.00 | 43 | 1009.7 |
| 20260503220648 | 13 | 0 | 0.0 | 0.0 | 0.00 | 0.00 | 0.00 | 43 | 1009.7 |
| 20260503220146 | 13 | 0 | 0.0 | 1.6 | 0.00 | 0.00 | 0.00 | 43 | 1009.8 |
| 20260503215646 | 13 | 0 | 0.0 | 3.2 | 0.00 | 0.00 | 0.00 | 43 | 1009.8 |
| 20260503215145 | 13 | 0 | 0.0 | 3.2 | 0.00 | 0.00 | 0.00 | 43 | 1009.9 |
| 20260503214643 | 13 | 0 | 0.0 | 0.0 | 0.00 | 0.00 | 0.00 | 43 | 1009.9 |
| 20260503214410 | 13 | 0 | 0.0 | 0.0 | 0.00 | 0.00 | 0.00 | 44 | 1009.9 |
| 20260503213641 | 13 | 0 | 0.0 | 0.0 | 0.00 | 0.00 | 0.00 | 43 | 1009.9 |
| 20260503213140 | 13 | 0 | 0.0 | 0.0 | 0.00 | 0.00 | 0.00 | 43 | 1009.9 |
| 20260503212640 | 13 | 294 | 0.0 | 1.6 | 0.00 | 0.00 | 0.00 | 44 | 1009.9 |
| 20260503212139 | 13 | 0 | 0.0 | 11.3 | 0.00 | 0.00 | 0.00 | 44 | 1009.9 |
| 20260503211640 | 13 | 0 | 0.0 | 11.3 | 0.00 | 0.00 | 0.00 | 44 | 1009.9 |
| 20260503211138 | 13 | 289 | 0.0 | 9.7 | 0.00 | 0.00 | 0.00 | 44 | 1009.9 |
| 20260503210637 | 13 | 296 | 0.0 | 9.7 | 0.00 | 0.00 | 0.00 | 43 | 1010.0 |
| 20260503210139 | 13 | 0 | 0.0 | 1.6 | 0.00 | 0.00 | 0.00 | 44 | 1010.0 |
| 20260503205637 | 13 | 274 | 0.0 | 11.3 | 0.00 | 0.00 | 0.00 | 43 | 1010.0 |
| 20260503205138 | 13 | 0 | 0.0 | 11.3 | 0.00 | 0.00 | 0.00 | 43 | 1009.9 |
| 20260503204635 | 13 | 293 | 3.2 | 19.3 | 0.00 | 0.00 | 0.00 | 44 | 1010.1 |
| 20260503204133 | 13 | 277 | 4.8 | 27.4 | 0.00 | 0.00 | 0.00 | 44 | 1010.2 |
| 20260503203633 | 13 | 336 | 3.2 | 27.4 | 0.00 | 0.00 | 0.00 | 44 | 1010.2 |
| 20260503203619 | 12 | 289 | 1.6 | 24.1 | 0.00 | 0.00 | 0.00 | 44 | 1010.3 |
| 20260503202632 | 12 | 286 | 0.0 | 11.3 | 0.00 | 0.00 | 0.00 | 43 | 1010.3 |
| 20260503202357 | 12 | 253 | 0.0 | 12.9 | 0.00 | 0.00 | 0.00 | 42 | 1010.2 |
| 20260503201634 | 13 | 313 | 1.6 | 12.9 | 0.00 | 0.00 | 0.00 | 42 | 1010.1 |
| 20260503201134 | 13 | 275 | 1.6 | 22.5 | 0.00 | 0.00 | 0.00 | 39 | 1010.2 |
| 20260503200634 | 13 | 284 | 1.6 | 22.5 | 0.00 | 0.00 | 0.00 | 38 | 1010.2 |
| 20260503200119 | 13 | 297 | 1.6 | 22.5 | 0.00 | 0.00 | 0.00 | 38 | 1010.1 |
| 20260503195847 | 13 | 294 | 1.6 | 22.5 | 0.00 | 0.00 | 0.00 | 38 | 1010.1 |
| 20260503195119 | 13 | 266 | 1.6 | 24.1 | 0.00 | 0.00 | 0.00 | 36 | 1010.0 |
| 20260503194620 | 13 | 0 | 1.6 | 24.1 | 0.00 | 0.00 | 0.00 | 37 | 1010.1 |
| 20260503194120 | 13 | 290 | 0.0 | 6.4 | 0.00 | 0.00 | 0.00 | 38 | 1010.2 |
| 20260503193840 | 13 | 263 | 1.6 | 19.3 | 0.00 | 0.00 | 0.00 | 36 | 1010.3 |
| 20260503193116 | 13 | 271 | 1.6 | 19.3 | 0.00 | 0.00 | 0.00 | 37 | 1010.4 |
| 20260503192615 | 13 | 271 | 0.0 | 1.6 | 0.00 | 0.00 | 0.00 | 39 | 1010.4 |
| 20260503192112 | 13 | 287 | 0.0 | 4.8 | 0.00 | 0.00 | 0.00 | 37 | 1010.4 |
| 20260503191610 | 13 | 288 | 0.0 | 6.4 | 0.00 | 0.00 | 0.00 | 37 | 1010.4 |
| 20260503191112 | 13 | 286 | 1.6 | 14.5 | 0.00 | 0.00 | 0.00 | 37 | 1010.4 |
| 20260503190605 | 13 | 254 | 1.6 | 14.5 | 0.00 | 0.00 | 0.00 | 36 | 1010.4 |
| 20260503185600 | 13 | 300 | 0.0 | 1.6 | 0.00 | 0.00 | 0.00 | 38 | 1010.6 |
| 20260503185103 | 13 | 326 | 0.0 | 0.0 | 0.00 | 0.00 | 0.00 | 37 | 1010.8 |
| 20260503184550 | 13 | 286 | 0.0 | 1.6 | 0.00 | 0.00 | 0.00 | 35 | 1010.6 |
| 20260503184314 | 13 | 250 | 1.6 | 11.3 | 0.00 | 0.00 | 0.00 | 36 | 1010.8 |
| 20260503183543 | 13 | 303 | 1.6 | 16.1 | 0.00 | 0.00 | 0.00 | 36 | 1010.8 |
| 20260503183041 | 13 | 0 | 0.0 | 16.1 | 0.00 | 0.00 | 0.00 | 37 | 1010.9 |
| 20260503182540 | 13 | 0 | 1.6 | 20.9 | 0.00 | 0.00 | 0.00 | 37 | 1011.0 |
| 20260503182258 | 12 | 277 | 1.6 | 20.9 | 0.00 | 0.00 | 0.00 | 36 | 1011.1 |
| 20260503181531 | 12 | 260 | 0.0 | 1.6 | 0.00 | 0.00 | 0.00 | 38 | 1011.1 |
| 20260503181029 | 12 | 0 | 0.0 | 14.5 | 0.00 | 0.00 | 0.00 | 37 | 1011.1 |
| 20260503180529 | 12 | 304 | 0.0 | 14.5 | 0.00 | 0.00 | 0.00 | 38 | 1011.1 |
| 20260503180259 | 12 | 309 | 0.0 | 6.4 | 0.00 | 0.00 | 0.00 | 38 | 1011.2 |
| 20260503175524 | 12 | 276 | 1.6 | 20.9 | 0.00 | 0.00 | 0.00 | 38 | 1011.3 |
| 20260503175021 | 12 | 0 | 1.6 | 20.9 | 0.00 | 0.00 | 0.00 | 37 | 1011.3 |
| 20260503174520 | 12 | 0 | 1.6 | 16.1 | 0.00 | 0.00 | 0.00 | 38 | 1011.5 |
| 20260503174014 | 12 | 269 | 1.6 | 16.1 | 0.00 | 0.00 | 0.00 | 38 | 1011.4 |
| 20260503173518 | 12 | 0 | 0.0 | 14.5 | 0.00 | 0.00 | 0.00 | 41 | 1011.5 |
| 20260503173012 | 12 | 289 | 0.0 | 14.5 | 0.00 | 0.00 | 0.00 | 41 | 1011.6 |
| 20260503172516 | 11 | 0 | 0.0 | 11.3 | 0.00 | 0.00 | 0.00 | 42 | 1011.9 |
| 20260503171959 | 11 | 296 | 0.0 | 12.9 | 0.00 | 0.00 | 0.00 | 41 | 1011.9 |
| 20260503171458 | 11 | 285 | 1.6 | 12.9 | 0.00 | 0.00 | 0.00 | 40 | 1012.0 |
| 20260503170951 | 11 | 281 | 1.6 | 20.9 | 0.00 | 0.00 | 0.00 | 39 | 1012.0 |
| 20260503170452 | 11 | 311 | 0.0 | 20.9 | 0.00 | 0.00 | 0.00 | 38 | 1012.1 |
| 20260503170220 | 12 | 262 | 0.0 | 8.0 | 0.00 | 0.00 | 0.00 | 40 | 1012.1 |
| 20260503150854 | 10 | 336 | 3.2 | 22.5 | 0.00 | 0.00 | 0.00 | 42 | 1013.0 |
| 20260503150354 | 10 | 0 | 1.6 | 22.5 | 0.00 | 0.00 | 0.00 | 39 | 1013.1 |
| 20260503140249 | 8 | 275 | 1.6 | 20.9 | 0.00 | 0.00 | 0.00 | 43 | 1013.2 |
| 20260503131240 | 8 | 280 | 0.0 | 8.0 | 0.00 | 0.00 | 0.00 | 52 | 1013.2 |
| 20260503130738 | 8 | 294 | 0.0 | 0.0 | 0.00 | 0.00 | 0.00 | 55 | 1013.2 |
| 20260503130237 | 8 | 294 | 0.0 | 0.0 | 0.00 | 0.00 | 0.00 | 57 | 1013.3 |
| 20260503120150 | 5 | 0 | 0.0 | 0.0 | 0.00 | 0.03 | 0.00 | 76 | 1013.5 |
| 20260503110659 | 2 | 300 | 0.0 | 0.0 | 0.00 | 0.03 | 0.00 | 84 | 1013.2 |
| 20260503090512 | 2 | 300 | 0.0 | 0.0 | 0.00 | 0.03 | 0.00 | 86 | 1012.4 |
| 20260503080938 | 2 | 300 | 0.0 | 0.0 | 0.00 | 0.03 | 0.00 | 86 | 1012.4 |
| 20260503080435 | 2 | 300 | 0.0 | 0.0 | 0.00 | 0.03 | 0.00 | 86 | 1012.4 |
| 20260503072857 | 2 | 300 | 0.0 | 0.0 | 0.00 | 0.03 | 0.00 | 85 | 1012.4 |
| 20260503072358 | 2 | 300 | 0.0 | 0.0 | 0.00 | 0.03 | 0.00 | 85 | 1012.4 |
| 20260503071855 | 2 | 300 | 0.0 | 0.0 | 0.00 | 0.03 | 0.00 | 84 | 1012.4 |
| 20260503071355 | 2 | 300 | 0.0 | 0.0 | 0.00 | 0.03 | 0.00 | 84 | 1012.4 |
| 20260503070854 | 2 | 300 | 0.0 | 0.0 | 0.00 | 0.03 | 0.00 | 84 | 1012.3 |